Starlink 6327

operational
NORAD ID: 56522 Int'l Des: 2023-065 Owner: SPXS Country: US Constellation: starlink
LEOCIRCULAR

About Starlink 6327

Description loading...

Live Position

Loading 3D Globe...

Upcoming Passes

Altitude History

Altitude vs Time

uPlot chart will show altitude changes over time

Two-Line Element Set

1 56522U 23065V 26037.42892803 .00000731 00000-0 69213-4 0 9996
2 56522 43.0047 20.0817 0001276 260.1042 99.9657 15.02531386151926
Epoch: Feb 6, 2026 • Age: 17 hours

Current Status

Altitude 558.3 km
Velocity 7.59 km/s
Sub-Earth Point 11.85°N, 1.59°E
Launch Date May 14, 2023
Age 2.7 years
Type internet

Technical Details

Classification Payload
Mass 305.00 kg
Dry Mass 290.00 kg
Total Mass 305.00 kg
Length 0.20 m
Diameter 2.80 m
Span 9.00 m
Shape Box + pan
Manufacturer SPXS
Bus Type Starlink
Phase Status In Orbit
Owner/State SPXS/US

Large Constellations

Loading constellations...